Weather in Letoshniki

Russia / Bryansk Oblast     53°27′18″N   33°38′44″E
temp.,
°C
wind,
m/s
gust,
m/s
humid.,
%
clouds,
%
prec.,
mm/h
press.,
hPa
HPBL,
m
17 april, sat
sat1700:00+7se24865 0.0 1017106
03:00+5ese23935 0.0 101861
06:00+4ese239389 0.0 101854
09:00+9se237097 0.0 1019474
12:00+13ene125399 0.0 10181317
15:00+11sw1266100 0.1 1017341
18:00+9nw1394100 5.9 1016414
21:00+7ene3593100 6.9 1015358
18 april, sun
sun1800:00+6se4793100 0.2 1016511
03:00+5s3993100 0.3 1017610
06:00+5e1392100 0.0 1018266
09:00+6ene2486100 0.1 1018519
12:00+8e247780 0.1 1019719
15:00+11ne335750 0.3 10181464
18:00+9nne467736 0.5 1019698
21:00+6nne499254 0.6 1020438
19 april, mon
mon1900:00+5nne4993100 0.0 1020495
03:00+4ne389694 0.1 1021269
06:00+5ne4990100 0.1 1020561
09:00+6ne488960 0.2 1021616
12:00+9ene5871100 0.1 10201180
15:00+9ne697774 0.6 10201075
18:00+7ne5988100 0.3 1021837
21:00+5ne51195100 0.3 1021619
20 april, tue
tue2000:00+4ene51196100 0.2 1020772
03:00+3ene51297100 4.8 1019661
06:00+2ene51197100 0.6 1018602
09:00+3ene51194100 1.0 1017629
12:00+4ene51096100 0.4 1016627
15:00+5ne51091100 0.4 1013752
18:00+5ne61394100 0.0 1009828
21:00+3nne71497100 1.1 1005839
21 april, wed
wed2100:00+1nne61597100 3.9 1001715
03:00+1n61498100 8.5 998536
06:00+1nw51299100 5.9 997424
09:00+1nw51298100 8.3 999508
12:00+2wnw51298100 0.8 1003721
15:00+4w51192100 0.8 10071113
18:00+4wsw41088100 0.0 1010676
21:00+4ssw3893100 0.0 1013250